Location: Bathurst
(33.4193°S, 149.5775°E)
Time: 15:08:59
(UTC+11:00)

Envisat - Pass Details

Date: 26 January 2021
Orbit: 764 x 766 km, 98.1° (Epoch: 07 March)

Event Time Altitude Azimuth Distance (km) Brightness Sun altitude
Rises 05:18:07 0° 37° (NE) 3,220 6.3 -11.9°
Reaches altitude 10° 05:20:36 10° 47° (NE) 2,302 5.7 -11.4°
Maximum altitude 05:25:06 33° 109° (ESE) 1,284 5.0 -10.6°
Drops below altitude 10° 05:29:38 10° 171° (S) 2,327 6.1 -9.8°
Sets 05:32:09 0° 180° (S) 3,261 6.7 -9.4°
